Flag for U.S.A. Weather past 2 weeks in Santa Barbara, California, U.S.A.

Now
55 °F

Clear.


Feels Like: 55 °F
Forecast: 59 / 74 °F
Wind: No wind

Location: Santa Barbara Municipal Airport

Current Time: Oct 23, 2014 at 6:27:00 AM

Latest Report: Oct 23, 2014 at 5:53 AM


Visibility: 10 mi

Pressure: 29.93 "Hg

Humidity: 83%

Dew point: 50 °F

Location of Santa BarbaraLocation

Historic Weather in Santa Barbara — Graph

°F

Santa Barbara temperature yesterday

Maximum temperature yesterday: 78 °F (at 3:53 PM)
Minimum temperature yesterday: 54 °F (at 4:53 AM)
Average temperature yesterday: 65 °F

Past Weeks' High & Low Weather Summary

 TemperatureHumidityPressure
High78 °F (Oct 22, 3:53 PM)97% (Oct 12, 4:53 AM)30.01 "Hg (Oct 12, 4:53 AM)
Low53 °F (Oct 18, 6:53 AM)35% (Oct 22, 3:53 PM)29.78 "Hg (Oct 8, 4:53 PM)
Average66 °F74%29.91 "Hg
* Reported Oct 8 4:53 AM — Oct 23 4:53 AM, Santa Barbara, Weather by CustomWeather, © 2014

Note: Actual official high and low records may vary slightly from our data, if they occured in-between our weather recording intervals... More about our weather records

Advertising

Santa Barbara weather history for previous 24 hours

 ConditionsComfort  
Time TempWeatherWind HumidityBarometerVisibility
4:53 AM
Oct 23
55 °FClear.No wind80%29.92 "Hg10 mi
3:53 AM57 °FClear.No wind78%29.92 "Hg10 mi
2:53 AM59 °FClear.No wind75%29.93 "Hg10 mi
1:53 AM60 °FClear.No wind75%29.93 "Hg10 mi
12:53 AM60 °FClear.3 mph78%29.93 "Hg10 mi
11:53 PM
Oct 22
60 °FClear.6 mph72%29.94 "Hg10 mi
10:53 PM60 °FClear.No wind69%29.93 "Hg10 mi
9:53 PM61 °FClear.3 mph70%29.93 "Hg10 mi
8:53 PM64 °FClear.No wind78%29.91 "Hg9 mi
7:53 PM67 °FClear.No wind81%29.90 "Hg10 mi
6:53 PM68 °FScattered clouds.5 mph78%29.89 "Hg10 mi
5:53 PM71 °FScattered clouds.6 mph71%29.89 "Hg10 mi
4:53 PM78 °FSunny.7 mph35%29.88 "Hg10 mi
3:53 PM78 °FSunny.9 mph35%29.89 "Hg10 mi
2:53 PM76 °FSunny.10 mph45%29.89 "Hg10 mi
1:53 PM77 °FScattered clouds.12 mph48%29.91 "Hg10 mi
12:53 PM76 °FScattered clouds.9 mph56%29.93 "Hg10 mi
11:53 AM74 °FSunny.7 mph62%29.94 "Hg10 mi
10:53 AM74 °FScattered clouds.6 mph57%29.95 "Hg10 mi
9:53 AM73 °FSunny.6 mph53%29.94 "Hg10 mi
8:53 AM65 °FSunny.No wind54%29.94 "Hg10 mi
7:53 AM55 °FClear.No wind77%29.93 "Hg10 mi
6:53 AM55 °FClear.No wind74%29.90 "Hg10 mi
Weather by CustomWeather, © 2014

See weather overviewHow to use our weather pages